Location: Domont
(49.0278°N, 2.3264°E)
Time: 05:15:09
(UTC+00:00)

Orbus 7S? - Pass Details

Date: 31 May 2022
Orbit: 340 x 6374 km, 56.9° (Epoch: 04 July)

Event Time Altitude Azimuth Distance (km) Brightness Sun altitude
Exits shadow 21:37:45 16° 154° (SSE) 3,809 6.9 -13.2°
Maximum altitude 21:46:25 35° 100° (E) 4,090 7.4 -13.9°
Drops below altitude 10° 22:08:20 10° 48° (NE) 8,669 9.6 -15.5°
Sets 22:17:38 0° 43° (NE) 10,446 10.1 -16.1°
